CZ-6A DEB, 54550

Orbit data source: Space-Track

CZ-6A DEB, 54550 is space debris in SSO originally from a launch on Fri, 11 Nov 2022 UTC launched from the Taiyaun Space Center, China (TSC). Debris objects in space refer to the collection of defunct objects orbiting the Earth. Examples of debris include non-operational satellites, rocket bodies, and fragments generated from explosions, collisions, or faulty payload assembly.

Loading next visibility...
Identifier
54550, 2022-151LA
Orbit
SSO
Country
Flag of CNCN / PRC
Related business
Manufacturer
SAST
Mission
Spacecraft
Bus & Motor
Unknown
Mass
Unknown
Launch date (UTC)
2022-11-11 (4 years ago)
Launch vehicle
Unknown
Launch site
Taiyaun Space Center, China (TSC)
Object type
Payload
Rocket body
Debris
Shape & HBR
Unknown shape, 0.2 m
Radar Cross Section
Medium (>0.1 m² and <1 m²)

Expand to show TLE details & history
Last TLE update: 23 hours ago

TLE from 23 hours ago
0 CZ-6A DEB
1 54550U 22151LA  26235.33227939  .00000785  00000-0  27007-3 0  9995
2 54550  98.6603 273.9850 0066421 112.1624 248.6629 14.37502340197679
Epoch: 2026-08-23T07:58Z
TLE epoch observation values (Epoch: 2026-08-23T07:58:28.939Z)
Latitude
0.00002°
Longitude
-177.26544°
Altitude
787.247 km
Speed
7.451 km/s
True Right ascension
18h 15m 56s
True Declination
0° 00' 00"
Sunlit
Object was in full shadow at epoch
Visualization orbit readout
Latitude
Unknown
Longitude
Unknown
Altitude
Unknown
Speed
Unknown
Apparent Right ascension
Unknown
Apparent Declination
Unknown
Sunlit
N/A
Visualization observer readout
Local Sidereal Time
22:16:44
Azimuth
Unknown
Elevation
Unknown
Doppler factor
Unknown
Orbital elements
Apogee altitude
811.333 km
Perigee altitude
716.457 km
Semi-major axis
7,142.032 km
Eccentricity
0.00664
Inclination
98.6603°
RAAN
273.985°
Arg. of periapsis
112.1624°
True anomaly
247.9561°
Mean anomaly
248.6629°
Eccentric anomaly
248.30928°
Mean motion
3.59592 °/min
Orbital period
100.11 mins
BSTAR
0.00027007
Loading maneuver chart data...
Computing Atmospheric mass density...
Loading historical data...
Loading historical data...
Loading historical data...
Loading historical data...
Loading historical data...
Loading historical data...
Loading historical data...

Documentation

Showing up to 5 results
|